Location: Bourg-d�Oueil
(42.8588°N, 0.4991°E)
Time: 03:07:01
(UTC+00:00)

Tiangong - Pass Details

Date: 29 November 2022
Orbit: 383 x 386 km, 41.5° (Epoch: 03 February)

Event Time Altitude Azimuth Distance (km) Brightness Sun altitude
Rises 16:28:48 0° 166° (SSE) 2,240 2.0 -1.3°
Enters shadow 16:34:47 -2° 100° (E) 2,537 1.5 -2.3°
Exits shadow 17:10:48 -73° 36° (NE) 12,599 5.4 -8.3°
Reaches altitude 10° 18:04:52 10° 202° (SSW) 1,396 1.2 -17.8°
